User: anonymous   Login
Location: Unspecified
(53.5279°N, 0.0000°E)
Time: 23:49:23
(UTC+00:00)
Language:

Hubble Space Telescope - Orbit

View from above orbital plane
View from above orbital plane
View from above satellite
View from above satellite

Ground track
Ground track

The orbit data is extracted from the following two-line orbital elements,

1 20580U 90037B   20275.55162789 +.00000576 +00000-0 +24024-4 0  9997
2 20580 028.4707 337.8989 0002773 148.9001 317.2848 15.09440811472003
Epoch (UTC): 01 October 2020 13:14:20
Eccentricity: 0.0002773
inclination: 28.4707°
perigee height: 536 km
apogee height: 540 km
right ascension of ascending node: 337.8989°
argument of perigee: 148.9001°
revolutions per day: 15.09440811
mean anomaly at epoch: 317.2848°
orbit number at epoch: 47200

The dashed part of the orbit path shows where the satellite is in the earth's shadow,  

DLR